Time,TemperatureF,DewpointF,PressureIn,WindDirection,WindDirectionDegrees,WindSpeedMPH,WindSpeedGustMPH,Humidity,HourlyPrecipIn,Conditions,Clouds,dailyrainin,SoftwareType,DateUTC
2013-06-25 00:01:00,66.3,65.1,29.93,WNW,291,0.0,0.0,96,0.00,RA,,0.00,WeatherDisplay:10.37,2013-06-25 04:01:00,
2013-06-25 00:02:00,66.3,65.1,29.93,WNW,291,0.0,0.0,96,0.00,RA,,0.00,WeatherDisplay:10.37,2013-06-25 04:02:00,
2013-06-25 00:03:00,66.4,65.2,29.93,WNW,291,0.0,0.0,96,0.00,FEW,,0.00,WeatherDisplay:10.37,2013-06-25 04:03:00,
2013-06-25 00:08:00,65.7,64.5,29.93,WNW,291,0.0,0.0,96,0.00,FEW,,0.00,WeatherDisplay:10.37,2013-06-25 04:08:00,
2013-06-25 00:13:00,65.3,64.1,29.93,WNW,291,0.0,0.0,96,0.00,FEW,,0.00,WeatherDisplay:10.37,2013-06-25 04:13:00,
2013-06-25 00:18:00,65.3,64.1,29.93,WNW,291,0.0,0.0,96,0.00,FEW,,0.00,WeatherDisplay:10.37,2013-06-25 04:18:00,
2013-06-25 00:23:00,65.3,64.1,29.93,WNW,291,0.0,0.0,96,0.00,FEW,,0.00,WeatherDisplay:10.37,2013-06-25 04:23:00,
2013-06-25 00:28:00,65.2,64.0,29.93,WNW,291,0.0,0.0,96,0.00,FEW,,0.00,WeatherDisplay:10.37,2013-06-25 04:28:00,
2013-06-25 00:33:00,65.0,63.8,29.93,WNW,291,0.0,0.0,96,0.00,FEW,,0.00,WeatherDisplay:10.37,2013-06-25 04:33:00,
2013-06-25 00:38:00,65.2,64.0,29.93,WNW,291,0.0,0.0,96,0.00,FEW,,0.00,WeatherDisplay:10.37,2013-06-25 04:38:00,
2013-06-25 00:43:00,64.9,63.7,29.93,WNW,291,1.1,1.1,96,0.00,FEW,,0.00,WeatherDisplay:10.37,2013-06-25 04:43:00,
2013-06-25 00:48:00,64.7,63.5,29.93,WNW,291,2.3,2.3,96,0.00,FEW,,0.00,WeatherDisplay:10.37,2013-06-25 04:48:00,
2013-06-25 00:53:00,65.0,63.8,29.93,WNW,291,0.0,0.0,96,0.00,FEW,,0.00,WeatherDisplay:10.37,2013-06-25 04:53:00,
2013-06-25 00:58:00,65.1,63.9,29.93,WNW,291,0.0,0.0,96,0.00,FEW,,0.00,WeatherDisplay:10.37,2013-06-25 04:58:00,
2013-06-25 01:03:00,65.0,60.7,29.92,WNW,291,0.0,0.0,86,0.00,CLR,,0.00,WeatherDisplay:10.37,2013-06-25 05:03:00,
2013-06-25 01:08:00,64.7,60.4,29.92,WNW,291,0.0,0.0,86,0.00,CLR,,0.00,WeatherDisplay:10.37,2013-06-25 05:08:00,
2013-06-25 01:13:00,64.7,60.4,29.92,WNW,291,0.0,0.0,86,0.00,CLR,,0.00,WeatherDisplay:10.37,2013-06-25 05:13:00,
2013-06-25 01:18:00,64.9,60.6,29.92,WNW,291,1.1,1.1,86,0.00,CLR,,0.00,WeatherDisplay:10.37,2013-06-25 05:18:00,
2013-06-25 01:23:00,64.7,60.4,29.92,WNW,291,0.0,0.0,86,0.00,CLR,,0.00,WeatherDisplay:10.37,2013-06-25 05:23:00,
2013-06-25 01:28:00,64.4,60.1,29.92,WNW,291,0.0,0.0,86,0.00,CLR,,0.00,WeatherDisplay:10.37,2013-06-25 05:28:00,
2013-06-25 01:33:00,64.3,60.0,29.92,WNW,291,0.0,0.0,86,0.00,CLR,,0.00,WeatherDisplay:10.37,2013-06-25 05:33:00,
2013-06-25 01:38:00,64.4,60.1,29.92,WNW,291,0.0,0.0,86,0.00,CLR,,0.00,WeatherDisplay:10.37,2013-06-25 05:38:00,
2013-06-25 01:43:00,64.3,60.0,29.92,WNW,291,0.0,0.0,86,0.00,CLR,,0.00,WeatherDisplay:10.37,2013-06-25 05:43:00,
2013-06-25 01:48:00,64.2,59.9,29.92,WNW,291,0.0,0.0,86,0.00,CLR,,0.00,WeatherDisplay:10.37,2013-06-25 05:48:00,
2013-06-25 01:53:00,64.2,59.9,29.92,WNW,291,0.0,0.0,86,0.00,CLR,,0.00,WeatherDisplay:10.37,2013-06-25 05:53:00,
2013-06-25 01:58:00,64.0,59.7,29.92,WNW,291,0.0,0.0,86,0.00,CLR,,0.00,WeatherDisplay:10.37,2013-06-25 05:58:00,
2013-06-25 02:03:00,64.0,60.7,29.90,WNW,291,0.0,0.0,89,0.00,CLR,,0.00,WeatherDisplay:10.37,2013-06-25 06:03:00,
2013-06-25 02:08:00,64.0,60.7,29.90,WNW,291,0.0,0.0,89,0.00,CLR,,0.00,WeatherDisplay:10.37,2013-06-25 06:08:00,
2013-06-25 02:13:00,64.0,60.7,29.90,WNW,291,0.0,0.0,89,0.00,CLR,,0.00,WeatherDisplay:10.37,2013-06-25 06:13:00,
2013-06-25 02:18:00,63.8,60.5,29.90,WNW,291,0.0,0.0,89,0.00,CLR,,0.00,WeatherDisplay:10.37,2013-06-25 06:18:00,
2013-06-25 02:23:00,63.6,60.3,29.90,WNW,291,0.0,0.0,89,0.00,CLR,,0.00,WeatherDisplay:10.37,2013-06-25 06:23:00,
2013-06-25 02:28:00,63.8,60.5,29.90,WNW,291,0.0,0.0,89,0.00,CLR,,0.00,WeatherDisplay:10.37,2013-06-25 06:28:00,
2013-06-25 02:33:00,63.6,60.3,29.90,WNW,291,0.0,0.0,89,0.00,CLR,,0.00,WeatherDisplay:10.37,2013-06-25 06:33:00,
2013-06-25 02:38:00,63.8,60.5,29.90,WNW,291,0.0,0.0,89,0.00,CLR,,0.00,WeatherDisplay:10.37,2013-06-25 06:38:00,
2013-06-25 02:43:00,63.9,60.6,29.90,WNW,291,0.0,0.0,89,0.00,CLR,,0.00,WeatherDisplay:10.37,2013-06-25 06:43:00,
2013-06-25 02:48:00,63.6,60.3,29.90,WNW,291,0.0,0.0,89,0.00,CLR,,0.00,WeatherDisplay:10.37,2013-06-25 06:48:00,
2013-06-25 02:53:00,63.5,60.2,29.90,WNW,291,0.0,0.0,89,0.00,CLR,,0.00,WeatherDisplay:10.37,2013-06-25 06:53:00,
2013-06-25 02:58:00,63.2,59.9,29.90,WNW,291,0.0,0.0,89,0.00,CLR,,0.00,WeatherDisplay:10.37,2013-06-25 06:58:00,
2013-06-25 03:03:00,63.3,62.1,29.89,WNW,291,0.0,0.0,96,0.00,CLR,,0.00,WeatherDisplay:10.37,2013-06-25 07:03:00,
2013-06-25 03:08:00,63.0,61.8,29.89,WNW,291,0.0,0.0,96,0.00,CLR,,0.00,WeatherDisplay:10.37,2013-06-25 07:08:00,
2013-06-25 03:13:00,63.0,61.8,29.89,WNW,291,0.0,0.0,96,0.00,CLR,,0.00,WeatherDisplay:10.37,2013-06-25 07:13:00,
2013-06-25 03:18:00,62.9,61.7,29.89,WNW,291,0.0,0.0,96,0.00,CLR,,0.00,WeatherDisplay:10.37,2013-06-25 07:18:00,
2013-06-25 03:23:00,62.6,61.4,29.89,WNW,291,0.0,0.0,96,0.00,CLR,,0.00,WeatherDisplay:10.37,2013-06-25 07:23:00,
2013-06-25 03:28:00,62.3,61.1,29.89,WNW,291,0.0,0.0,96,0.00,CLR,,0.00,WeatherDisplay:10.37,2013-06-25 07:28:00,
2013-06-25 03:33:00,62.4,61.2,29.89,WNW,291,0.0,0.0,96,0.00,CLR,,0.00,WeatherDisplay:10.37,2013-06-25 07:33:00,
2013-06-25 03:38:00,62.4,61.2,29.89,WNW,291,0.0,0.0,96,0.00,CLR,,0.00,WeatherDisplay:10.37,2013-06-25 07:38:00,
2013-06-25 03:43:00,62.1,60.9,29.89,WNW,291,0.0,0.0,96,0.00,CLR,,0.00,WeatherDisplay:10.37,2013-06-25 07:43:00,
2013-06-25 03:48:00,62.0,60.8,29.89,WNW,291,0.0,0.0,96,0.00,CLR,,0.00,WeatherDisplay:10.37,2013-06-25 07:48:00,
2013-06-25 03:53:00,62.1,60.9,29.89,WNW,291,0.0,0.0,96,0.00,CLR,,0.00,WeatherDisplay:10.37,2013-06-25 07:53:00,
2013-06-25 03:58:00,62.6,61.4,29.89,WNW,291,0.0,0.0,96,0.00,CLR,,0.00,WeatherDisplay:10.37,2013-06-25 07:58:00,
2013-06-25 04:03:00,62.7,61.5,29.89,WNW,291,0.0,0.0,96,0.00,CLR,,0.00,WeatherDisplay:10.37,2013-06-25 08:03:00,
2013-06-25 04:08:00,62.7,61.5,29.89,WNW,291,0.0,0.0,96,0.00,CLR,,0.00,WeatherDisplay:10.37,2013-06-25 08:08:00,
2013-06-25 04:13:00,62.7,61.5,29.89,WNW,291,0.0,0.0,96,0.00,CLR,,0.00,WeatherDisplay:10.37,2013-06-25 08:13:00,
2013-06-25 04:18:00,62.5,61.3,29.89,WNW,291,0.0,0.0,96,0.00,CLR,,0.00,WeatherDisplay:10.37,2013-06-25 08:18:00,
2013-06-25 04:23:00,62.2,61.0,29.89,WNW,291,0.0,0.0,96,0.00,CLR,,0.00,WeatherDisplay:10.37,2013-06-25 08:23:00,
2013-06-25 04:28:00,61.9,60.7,29.89,WNW,291,0.0,0.0,96,0.00,CLR,,0.00,WeatherDisplay:10.37,2013-06-25 08:28:00,
2013-06-25 04:33:00,61.8,60.6,29.89,WNW,291,0.0,0.0,96,0.00,CLR,,0.00,WeatherDisplay:10.37,2013-06-25 08:33:00,
2013-06-25 04:38:00,61.6,60.4,29.89,WNW,291,0.0,0.0,96,0.00,CLR,,0.00,WeatherDisplay:10.37,2013-06-25 08:38:00,
2013-06-25 04:43:00,61.6,60.4,29.89,WNW,291,0.0,0.0,96,0.00,CLR,,0.00,WeatherDisplay:10.37,2013-06-25 08:43:00,
2013-06-25 04:48:00,61.9,60.7,29.89,WNW,291,0.0,0.0,96,0.00,CLR,,0.00,WeatherDisplay:10.37,2013-06-25 08:48:00,
2013-06-25 04:53:00,62.0,60.8,29.89,WNW,291,0.0,0.0,96,0.00,CLR,,0.00,WeatherDisplay:10.37,2013-06-25 08:53:00,
2013-06-25 04:58:00,61.9,60.7,29.89,WNW,291,0.0,0.0,96,0.00,CLR,,0.00,WeatherDisplay:10.37,2013-06-25 08:58:00,
2013-06-25 05:03:00,61.8,56.6,29.89,WNW,291,0.0,0.0,83,0.00,CLR,,0.00,WeatherDisplay:10.37,2013-06-25 09:03:00,
2013-06-25 05:08:00,61.7,56.5,29.89,WNW,291,0.0,0.0,83,0.00,CLR,,0.00,WeatherDisplay:10.37,2013-06-25 09:08:00,
2013-06-25 05:13:00,61.8,56.6,29.89,WNW,291,0.0,0.0,83,0.00,CLR,,0.00,WeatherDisplay:10.37,2013-06-25 09:13:00,
2013-06-25 05:18:00,62.0,56.8,29.89,WNW,291,0.0,0.0,83,0.00,CLR,,0.00,WeatherDisplay:10.37,2013-06-25 09:18:00,
2013-06-25 05:23:00,61.9,56.7,29.89,WNW,291,0.0,0.0,83,0.00,CLR,,0.00,WeatherDisplay:10.37,2013-06-25 09:23:00,
2013-06-25 05:28:00,61.8,56.6,29.89,WNW,291,0.0,0.0,83,0.00,CLR,,0.00,WeatherDisplay:10.37,2013-06-25 09:28:00,
2013-06-25 05:33:00,61.5,56.3,29.89,WNW,291,0.0,0.0,83,0.00,CLR,,0.00,WeatherDisplay:10.37,2013-06-25 09:33:00,
2013-06-25 05:38:00,61.6,56.4,29.89,WNW,291,0.0,0.0,83,0.00,CLR,,0.00,WeatherDisplay:10.37,2013-06-25 09:38:00,
2013-06-25 05:43:00,61.7,56.5,29.89,WNW,291,0.0,0.0,83,0.00,CLR,,0.00,WeatherDisplay:10.37,2013-06-25 09:43:00,
2013-06-25 05:48:00,62.1,56.9,29.89,WNW,291,0.0,0.0,83,0.00,CLR,,0.00,WeatherDisplay:10.37,2013-06-25 09:48:00,
2013-06-25 05:53:00,62.0,56.8,29.89,WNW,291,0.0,0.0,83,0.00,CLR,,0.00,WeatherDisplay:10.37,2013-06-25 09:53:00,
2013-06-25 05:58:00,62.1,56.9,29.89,WNW,291,0.0,0.0,83,0.00,CLR,,0.00,WeatherDisplay:10.37,2013-06-25 09:58:00,
2013-06-25 06:03:00,62.3,61.1,29.89,WNW,291,0.0,0.0,96,0.00,FEW,,0.00,WeatherDisplay:10.37,2013-06-25 10:03:00,
2013-06-25 06:08:00,62.6,61.4,29.89,WNW,291,0.0,0.0,96,0.00,FEW,,0.00,WeatherDisplay:10.37,2013-06-25 10:08:00,
2013-06-25 06:13:00,62.6,61.4,29.89,WNW,291,0.0,0.0,96,0.00,FEW,,0.00,WeatherDisplay:10.37,2013-06-25 10:13:00,
2013-06-25 06:18:00,62.7,61.5,29.89,WNW,291,0.0,0.0,96,0.00,FEW,,0.00,WeatherDisplay:10.37,2013-06-25 10:18:00,
2013-06-25 06:23:00,62.7,61.5,29.89,WNW,291,0.0,0.0,96,0.00,FEW,,0.00,WeatherDisplay:10.37,2013-06-25 10:23:00,
2013-06-25 06:28:00,62.9,61.7,29.89,WNW,291,0.0,0.0,96,0.00,FEW,,0.00,WeatherDisplay:10.37,2013-06-25 10:28:00,
2013-06-25 06:33:00,63.1,61.9,29.89,WNW,291,0.0,0.0,96,0.00,FEW,,0.00,WeatherDisplay:10.37,2013-06-25 10:33:00,
2013-06-25 06:38:00,63.1,61.9,29.89,WNW,291,0.0,0.0,96,0.00,FEW,,0.00,WeatherDisplay:10.37,2013-06-25 10:38:00,
2013-06-25 06:43:00,63.3,62.1,29.89,WNW,291,0.0,0.0,96,0.00,FEW,,0.00,WeatherDisplay:10.37,2013-06-25 10:43:00,
2013-06-25 06:48:00,63.7,62.5,29.89,WNW,291,0.0,0.0,96,0.00,FEW,,0.00,WeatherDisplay:10.37,2013-06-25 10:48:00,
2013-06-25 06:53:00,63.9,62.7,29.89,WNW,291,0.0,0.0,96,0.00,FEW,,0.00,WeatherDisplay:10.37,2013-06-25 10:53:00,
2013-06-25 06:58:00,64.3,63.1,29.89,WNW,291,0.0,0.0,96,0.00,FEW,,0.00,WeatherDisplay:10.37,2013-06-25 10:58:00,
2013-06-25 07:03:00,64.8,60.8,29.88,WNW,291,0.0,0.0,87,0.00,CLR,,0.00,WeatherDisplay:10.37,2013-06-25 11:03:00,
2013-06-25 07:08:00,65.1,61.1,29.88,WNW,291,0.0,0.0,87,0.00,CLR,,0.00,WeatherDisplay:10.37,2013-06-25 11:08:00,
2013-06-25 07:13:00,65.4,61.4,29.88,WNW,291,0.0,0.0,87,0.00,CLR,,0.00,WeatherDisplay:10.37,2013-06-25 11:13:00,
2013-06-25 07:18:00,66.0,62.0,29.88,WNW,291,0.0,0.0,87,0.00,CLR,,0.00,WeatherDisplay:10.37,2013-06-25 11:18:00,
2013-06-25 07:23:00,66.3,62.3,29.88,WNW,291,0.0,0.0,87,0.00,CLR,,0.00,WeatherDisplay:10.37,2013-06-25 11:23:00,
2013-06-25 07:28:00,66.9,62.9,29.88,WNW,291,0.0,0.0,87,0.00,CLR,,0.00,WeatherDisplay:10.37,2013-06-25 11:28:00,
2013-06-25 07:33:00,67.4,63.4,29.88,WNW,291,0.0,0.0,87,0.00,CLR,,0.00,WeatherDisplay:10.37,2013-06-25 11:33:00,
2013-06-25 07:38:00,67.9,63.9,29.88,WNW,291,0.0,0.0,87,0.00,CLR,,0.00,WeatherDisplay:10.37,2013-06-25 11:38:00,
2013-06-25 07:43:00,67.9,63.9,29.88,WNW,291,0.0,0.0,87,0.00,CLR,,0.00,WeatherDisplay:10.37,2013-06-25 11:43:00,
2013-06-25 07:48:00,68.2,64.2,29.88,WNW,291,0.0,0.0,87,0.00,CLR,,0.00,WeatherDisplay:10.37,2013-06-25 11:48:00,
2013-06-25 07:53:00,68.3,64.3,29.88,WNW,291,0.0,0.0,87,0.00,CLR,,0.00,WeatherDisplay:10.37,2013-06-25 11:53:00,
2013-06-25 07:58:00,68.9,64.9,29.88,WNW,291,1.1,0.0,87,0.00,CLR,,0.00,WeatherDisplay:10.37,2013-06-25 11:58:00,
2013-06-25 08:03:00,69.3,65.3,29.88,WNW,291,0.0,0.0,87,0.00,CLR,,0.00,WeatherDisplay:10.37,2013-06-25 12:03:00,
2013-06-25 08:08:00,69.2,65.2,29.88,WNW,291,0.0,0.0,87,0.00,CLR,,0.00,WeatherDisplay:10.37,2013-06-25 12:08:00,
2013-06-25 08:13:00,69.7,59.5,29.88,WNW,291,0.0,0.0,70,0.00,CLR,,0.00,WeatherDisplay:10.37,2013-06-25 12:13:00,
2013-06-25 08:18:00,70.0,59.8,29.88,WNW,291,1.1,1.1,70,0.00,CLR,,0.00,WeatherDisplay:10.37,2013-06-25 12:18:00,
2013-06-25 08:23:00,70.0,59.8,29.88,WNW,291,0.0,0.0,70,0.00,CLR,,0.00,WeatherDisplay:10.37,2013-06-25 12:23:00,
2013-06-25 08:28:00,70.5,60.2,29.88,WNW,291,0.0,0.0,70,0.00,CLR,,0.00,WeatherDisplay:10.37,2013-06-25 12:28:00,
2013-06-25 08:33:00,71.2,60.9,29.88,WNW,291,1.1,1.1,70,0.00,CLR,,0.00,WeatherDisplay:10.37,2013-06-25 12:33:00,
2013-06-25 08:38:00,71.2,60.9,29.88,WNW,291,1.0,1.0,70,0.00,CLR,,0.00,WeatherDisplay:10.37,2013-06-25 12:38:00,
2013-06-25 08:43:00,71.5,61.2,29.88,WNW,291,0.0,0.0,70,0.00,CLR,,0.00,WeatherDisplay:10.37,2013-06-25 12:43:00,
2013-06-25 08:48:00,71.9,61.6,29.88,WNW,291,2.0,2.0,70,0.00,CLR,,0.00,WeatherDisplay:10.37,2013-06-25 12:48:00,
2013-06-25 08:53:00,72.5,62.2,29.88,WNW,291,1.1,1.1,70,0.00,CLR,,0.00,WeatherDisplay:10.37,2013-06-25 12:53:00,
2013-06-25 08:58:00,72.4,62.1,29.88,WNW,291,1.1,1.1,70,0.00,CLR,,0.00,WeatherDisplay:10.37,2013-06-25 12:58:00,
2013-06-25 09:03:00,72.8,62.4,29.88,WNW,291,1.1,1.1,70,0.00,CLR,,0.00,WeatherDisplay:10.37,2013-06-25 13:03:00,
2013-06-25 09:08:00,72.6,62.3,29.88,WNW,291,1.1,1.1,70,0.00,CLR,,0.00,WeatherDisplay:10.37,2013-06-25 13:08:00,
2013-06-25 09:13:00,73.6,61.5,29.87,WNW,291,1.1,1.1,66,0.00,CLR,,0.00,WeatherDisplay:10.37,2013-06-25 13:13:00,
2013-06-25 09:18:00,72.6,60.6,29.87,WNW,291,0.0,0.0,66,0.00,CLR,,0.00,WeatherDisplay:10.37,2013-06-25 13:18:00,
2013-06-25 09:23:00,72.6,60.6,29.87,WNW,291,0.0,0.0,66,0.00,CLR,,0.00,WeatherDisplay:10.37,2013-06-25 13:23:00,
2013-06-25 09:28:00,72.6,60.6,29.87,WNW,291,0.0,0.0,66,0.00,CLR,,0.00,WeatherDisplay:10.37,2013-06-25 13:28:00,
2013-06-25 09:33:00,73.3,61.3,29.87,WNW,291,0.0,0.0,66,0.00,CLR,,0.00,WeatherDisplay:10.37,2013-06-25 13:33:00,
2013-06-25 09:38:00,73.4,61.3,29.87,WNW,291,0.0,0.0,66,0.00,CLR,,0.00,WeatherDisplay:10.37,2013-06-25 13:38:00,
2013-06-25 09:43:00,73.2,61.2,29.87,WNW,291,0.0,0.0,66,0.00,CLR,,0.00,WeatherDisplay:10.37,2013-06-25 13:43:00,
2013-06-25 09:48:00,73.5,61.4,29.87,WNW,291,2.0,2.0,66,0.00,CLR,,0.00,WeatherDisplay:10.37,2013-06-25 13:48:00,
2013-06-25 09:53:00,73.2,61.2,29.87,WNW,291,1.1,1.1,66,0.00,CLR,,0.00,WeatherDisplay:10.37,2013-06-25 13:53:00,
2013-06-25 09:58:00,73.9,61.8,29.87,WNW,291,0.0,0.0,66,0.00,CLR,,0.00,WeatherDisplay:10.37,2013-06-25 13:58:00,
2013-06-25 10:03:00,74.1,62.0,29.87,WNW,291,1.1,1.1,66,0.00,CLR,,0.00,WeatherDisplay:10.37,2013-06-25 14:03:00,
2013-06-25 10:08:00,74.2,62.1,29.87,WNW,291,0.0,0.0,66,0.00,CLR,,0.00,WeatherDisplay:10.37,2013-06-25 14:08:00,
2013-06-25 10:13:00,74.9,61.0,29.86,WNW,291,0.0,0.0,62,0.00,CLR,,0.00,WeatherDisplay:10.37,2013-06-25 14:13:00,
2013-06-25 10:18:00,76.1,62.1,29.86,WNW,291,1.0,0.0,62,0.00,CLR,,0.00,WeatherDisplay:10.37,2013-06-25 14:18:00,
2013-06-25 10:23:00,76.5,62.5,29.86,WNW,291,0.0,0.0,62,0.00,CLR,,0.00,WeatherDisplay:10.37,2013-06-25 14:23:00,
2013-06-25 10:28:00,76.4,62.4,29.86,WNW,291,0.0,0.0,62,0.00,CLR,,0.00,WeatherDisplay:10.37,2013-06-25 14:28:00,
2013-06-25 10:33:00,77.2,63.2,29.86,WNW,291,0.0,0.0,62,0.00,CLR,,0.00,WeatherDisplay:10.37,2013-06-25 14:33:00,
2013-06-25 10:38:00,77.4,63.4,29.86,WNW,291,0.0,0.0,62,0.00,CLR,,0.00,WeatherDisplay:10.37,2013-06-25 14:38:00,
2013-06-25 10:43:00,77.5,63.5,29.86,WNW,290,0.0,0.0,62,0.00,CLR,,0.00,WeatherDisplay:10.37,2013-06-25 14:43:00,
2013-06-25 10:48:00,77.8,63.7,29.86,WNW,291,0.0,0.1,62,0.00,CLR,,0.00,WeatherDisplay:10.37,2013-06-25 14:48:00,
2013-06-25 10:53:00,78.5,64.4,29.86,WNW,291,0.0,0.0,62,0.00,CLR,,0.00,WeatherDisplay:10.37,2013-06-25 14:53:00,
2013-06-25 10:58:00,78.7,64.6,29.86,WNW,291,0.0,0.0,62,0.00,CLR,,0.00,WeatherDisplay:10.37,2013-06-25 14:58:00,
2013-06-25 11:03:00,78.3,62.3,29.87,WNW,291,2.3,2.3,58,0.00,CLR,,0.00,WeatherDisplay:10.37,2013-06-25 15:03:00,
2013-06-25 11:08:00,79.7,63.6,29.87,WNW,291,2.3,2.3,58,0.00,CLR,,0.00,WeatherDisplay:10.37,2013-06-25 15:08:00,
2013-06-25 11:13:00,79.4,63.3,29.87,WNW,291,2.3,2.3,58,0.00,CLR,,0.00,WeatherDisplay:10.37,2013-06-25 15:13:00,
2013-06-25 11:18:00,79.8,63.7,29.87,WNW,291,0.0,0.0,58,0.00,CLR,,0.00,WeatherDisplay:10.37,2013-06-25 15:18:00,
2013-06-25 11:23:00,79.9,63.8,29.87,WNW,291,3.5,3.5,58,0.00,CLR,,0.00,WeatherDisplay:10.37,2013-06-25 15:23:00,
2013-06-25 11:28:00,79.9,63.8,29.87,WNW,291,2.3,2.3,58,0.00,CLR,,0.00,WeatherDisplay:10.37,2013-06-25 15:28:00,
2013-06-25 11:33:00,80.3,64.2,29.87,WNW,291,3.0,3.0,58,0.00,CLR,,0.00,WeatherDisplay:10.37,2013-06-25 15:33:00,
2013-06-25 11:38:00,81.3,65.1,29.87,WNW,291,2.0,2.0,58,0.00,CLR,,0.00,WeatherDisplay:10.37,2013-06-25 15:38:00,
2013-06-25 11:43:00,80.6,64.5,29.87,WNW,291,2.3,2.3,58,0.00,CLR,,0.00,WeatherDisplay:10.37,2013-06-25 15:43:00,
2013-06-25 11:48:00,80.6,64.5,29.87,WNW,291,2.0,2.0,58,0.00,CLR,,0.00,WeatherDisplay:10.37,2013-06-25 15:48:00,
2013-06-25 11:53:00,81.1,64.9,29.87,WNW,291,3.5,3.5,58,0.00,CLR,,0.00,WeatherDisplay:10.37,2013-06-25 15:53:00,
2013-06-25 11:58:00,81.6,65.4,29.87,WNW,291,3.5,3.5,58,0.00,CLR,,0.00,WeatherDisplay:10.37,2013-06-25 15:58:00,
2013-06-25 12:03:00,82.1,65.9,29.87,WNW,292,0.0,0.0,58,0.00,CLR,,0.00,WeatherDisplay:10.37,2013-06-25 16:03:00,
2013-06-25 12:08:00,82.0,65.8,29.87,WNW,292,0.0,0.0,58,0.00,CLR,,0.00,WeatherDisplay:10.37,2013-06-25 16:08:00,
2013-06-25 12:13:00,81.3,63.6,29.85,WNW,292,0.0,0.0,55,0.00,FEW,,0.00,WeatherDisplay:10.37,2013-06-25 16:13:00,
2013-06-25 12:18:00,81.9,64.1,29.85,WNW,292,0.0,0.0,55,0.00,FEW,,0.00,WeatherDisplay:10.37,2013-06-25 16:18:00,
2013-06-25 12:23:00,81.4,63.7,29.85,WNW,292,0.0,0.0,55,0.00,FEW,,0.00,WeatherDisplay:10.37,2013-06-25 16:23:00,
2013-06-25 12:28:00,81.6,63.9,29.85,WNW,292,0.0,0.0,55,0.00,FEW,,0.00,WeatherDisplay:10.37,2013-06-25 16:28:00,
2013-06-25 12:33:00,80.8,63.1,29.85,WNW,292,0.0,0.0,55,0.00,FEW,,0.00,WeatherDisplay:10.37,2013-06-25 16:33:00,
2013-06-25 12:38:00,82.1,64.3,29.85,WNW,292,0.0,0.0,55,0.00,FEW,,0.00,WeatherDisplay:10.37,2013-06-25 16:38:00,
2013-06-25 12:43:00,82.9,65.1,29.85,WNW,292,0.0,0.0,55,0.00,FEW,,0.00,WeatherDisplay:10.37,2013-06-25 16:43:00,
2013-06-25 12:48:00,83.5,65.6,29.85,WNW,292,0.0,0.0,55,0.00,FEW,,0.00,WeatherDisplay:10.37,2013-06-25 16:48:00,
2013-06-25 12:53:00,81.5,63.8,29.85,WNW,292,0.0,0.0,55,0.00,FEW,,0.00,WeatherDisplay:10.37,2013-06-25 16:53:00,
2013-06-25 12:58:00,83.8,65.9,29.85,WNW,292,0.0,0.0,55,0.00,FEW,,0.00,WeatherDisplay:10.37,2013-06-25 16:58:00,
2013-06-25 13:03:00,83.6,65.7,29.85,South,169,3.5,3.5,55,0.00,FEW,,0.00,WeatherDisplay:10.37,2013-06-25 17:03:00,
2013-06-25 13:08:00,83.8,65.9,29.85,South,169,2.3,2.3,55,0.00,FEW,,0.00,WeatherDisplay:10.37,2013-06-25 17:08:00,
2013-06-25 13:13:00,83.8,60.8,29.84,South,169,1.1,1.1,46,0.00,BKN,,0.00,WeatherDisplay:10.37,2013-06-25 17:13:00,
2013-06-25 13:18:00,85.5,62.4,29.84,South,172,3.5,3.5,46,0.00,BKN,,0.00,WeatherDisplay:10.37,2013-06-25 17:18:00,
2013-06-25 13:23:00,84.5,61.4,29.84,South,174,1.1,1.1,46,0.00,BKN,,0.00,WeatherDisplay:10.37,2013-06-25 17:23:00,
2013-06-25 13:28:00,84.9,61.8,29.84,South,173,2.3,2.3,46,0.00,BKN,,0.00,WeatherDisplay:10.37,2013-06-25 17:28:00,
2013-06-25 13:33:00,82.6,59.7,29.84,South,176,3.5,3.5,46,0.00,BKN,,0.00,WeatherDisplay:10.37,2013-06-25 17:33:00,
2013-06-25 13:38:00,83.7,60.7,29.84,SSE,162,2.3,2.3,46,0.00,BKN,,0.00,WeatherDisplay:10.37,2013-06-25 17:38:00,
2013-06-25 13:43:00,82.9,60.0,29.84,SSE,165,3.5,3.5,46,0.00,BKN,,0.00,WeatherDisplay:10.37,2013-06-25 17:43:00,
2013-06-25 13:48:00,84.1,61.1,29.84,SSE,165,1.1,1.2,46,0.00,BKN,,0.00,WeatherDisplay:10.37,2013-06-25 17:48:00,
2013-06-25 13:53:00,84.4,61.4,29.84,SSE,166,3.5,3.5,46,0.00,BKN,,0.00,WeatherDisplay:10.37,2013-06-25 17:53:00,
2013-06-25 13:58:00,85.3,62.2,29.84,SSE,154,3.5,3.5,46,0.00,BKN,,0.00,WeatherDisplay:10.37,2013-06-25 17:58:00,
2013-06-25 14:03:00,85.4,62.3,29.81,SSE,163,3.5,3.5,46,0.00,CLR,,0.00,WeatherDisplay:10.37,2013-06-25 18:03:00,
2013-06-25 14:08:00,85.0,61.9,29.81,SSW,193,3.5,3.5,46,0.00,CLR,,0.00,WeatherDisplay:10.37,2013-06-25 18:08:00,
2013-06-25 14:13:00,84.0,61.0,29.81,SSW,194,2.3,2.3,46,0.00,CLR,,0.00,WeatherDisplay:10.37,2013-06-25 18:13:00,
2013-06-25 14:18:00,84.6,61.5,29.81,SSW,202,2.3,2.3,46,0.00,CLR,,0.00,WeatherDisplay:10.37,2013-06-25 18:18:00,
2013-06-25 14:23:00,84.5,61.4,29.81,WSW,246,2.3,2.3,46,0.00,CLR,,0.00,WeatherDisplay:10.37,2013-06-25 18:23:00,
2013-06-25 14:28:00,84.1,61.1,29.81,WSW,247,2.3,2.3,46,0.00,CLR,,0.00,WeatherDisplay:10.37,2013-06-25 18:28:00,
2013-06-25 14:33:00,85.3,62.2,29.81,WSW,247,2.3,2.3,46,0.00,CLR,,0.00,WeatherDisplay:10.37,2013-06-25 18:33:00,
2013-06-25 14:38:00,85.2,62.1,29.81,WSW,256,3.5,3.5,46,0.00,CLR,,0.00,WeatherDisplay:10.37,2013-06-25 18:38:00,
2013-06-25 14:43:00,85.0,61.9,29.81,WSW,257,3.5,3.5,46,0.00,CLR,,0.00,WeatherDisplay:10.37,2013-06-25 18:43:00,
2013-06-25 14:48:00,85.8,62.6,29.81,WSW,257,3.5,3.5,46,0.00,CLR,,0.00,WeatherDisplay:10.37,2013-06-25 18:48:00,
2013-06-25 14:53:00,84.3,61.3,29.81,WSW,257,2.3,2.3,46,0.00,CLR,,0.00,WeatherDisplay:10.37,2013-06-25 18:53:00,
2013-06-25 14:58:00,83.4,60.4,29.81,West,277,2.3,2.3,46,0.00,CLR,,0.00,WeatherDisplay:10.37,2013-06-25 18:58:00,
2013-06-25 15:03:00,82.2,59.4,29.81,WNW,299,1.1,1.1,46,0.00,CLR,,0.00,WeatherDisplay:10.37,2013-06-25 19:03:00,
2013-06-25 15:08:00,82.7,59.8,29.81,NNE,28,3.0,3.0,46,0.00,CLR,,0.00,WeatherDisplay:10.37,2013-06-25 19:08:00,
2013-06-25 15:13:00,84.5,64.4,29.78,North,2,2.3,2.3,51,0.00,FEW,,0.00,WeatherDisplay:10.37,2013-06-25 19:13:00,
2013-06-25 15:18:00,84.6,64.5,29.78,North,2,3.5,3.5,51,0.00,FEW,,0.00,WeatherDisplay:10.37,2013-06-25 19:18:00,
2013-06-25 15:23:00,85.7,65.5,29.78,NNW,339,3.5,3.5,51,0.00,FEW,,0.00,WeatherDisplay:10.37,2013-06-25 19:23:00,
2013-06-25 15:28:00,84.9,64.8,29.78,NNW,339,1.1,1.1,51,0.00,FEW,,0.00,WeatherDisplay:10.37,2013-06-25 19:28:00,
2013-06-25 15:33:00,85.0,64.8,29.78,NNW,339,3.5,3.5,51,0.00,FEW,,0.00,WeatherDisplay:10.37,2013-06-25 19:33:00,
2013-06-25 15:38:00,85.5,65.3,29.78,WSW,242,3.5,3.5,51,0.00,FEW,,0.00,WeatherDisplay:10.37,2013-06-25 19:38:00,
2013-06-25 15:43:00,85.2,65.0,29.78,WSW,242,2.3,2.3,51,0.00,FEW,,0.00,WeatherDisplay:10.37,2013-06-25 19:43:00,
2013-06-25 15:48:00,84.4,64.3,29.78,WSW,242,2.3,2.3,51,0.00,FEW,,0.00,WeatherDisplay:10.37,2013-06-25 19:48:00,
2013-06-25 15:53:00,85.0,64.8,29.78,WSW,240,3.5,3.5,51,0.00,FEW,,0.00,WeatherDisplay:10.37,2013-06-25 19:53:00,
2013-06-25 15:58:00,84.0,63.9,29.78,NE,43,3.5,3.5,51,0.00,FEW,,0.00,WeatherDisplay:10.37,2013-06-25 19:58:00,
2013-06-25 16:03:00,84.0,63.9,29.78,NE,40,3.5,3.5,51,0.00,FEW,,0.00,WeatherDisplay:10.37,2013-06-25 20:03:00,
2013-06-25 16:08:00,82.9,62.9,29.78,North,1,1.1,1.1,51,0.00,FEW,,0.00,WeatherDisplay:10.37,2013-06-25 20:08:00,
2013-06-25 16:13:00,82.7,57.9,29.75,North,1,2.0,2.0,43,0.00,SCT,,0.00,WeatherDisplay:10.37,2013-06-25 20:13:00,
2013-06-25 16:18:00,82.2,57.5,29.75,North,1,1.0,1.0,43,0.00,SCT,,0.00,WeatherDisplay:10.37,2013-06-25 20:18:00,
2013-06-25 16:23:00,83.1,58.3,29.75,North,0,3.5,3.5,43,0.00,SCT,,0.00,WeatherDisplay:10.37,2013-06-25 20:23:00,
2013-06-25 16:28:00,83.4,58.6,29.75,North,0,2.3,2.3,43,0.00,SCT,,0.00,WeatherDisplay:10.37,2013-06-25 20:28:00,
2013-06-25 16:33:00,81.8,57.1,29.75,North,0,2.3,2.3,43,0.00,SCT,,0.00,WeatherDisplay:10.37,2013-06-25 20:33:00,
2013-06-25 16:38:00,82.0,57.3,29.75,North,0,2.3,2.3,43,0.00,SCT,,0.00,WeatherDisplay:10.37,2013-06-25 20:38:00,
2013-06-25 16:43:00,81.9,57.2,29.75,North,0,2.3,2.3,43,0.00,SCT,,0.00,WeatherDisplay:10.37,2013-06-25 20:43:00,
2013-06-25 16:44:00,81.8,57.1,29.75,North,0,2.3,2.3,43,0.00,SCT,,0.00,WeatherDisplay:10.37,2013-06-25 20:44:00,
2013-06-25 16:49:00,81.4,56.8,29.75,North,0,2.3,2.3,43,0.00,SCT,,0.00,WeatherDisplay:10.37,2013-06-25 20:49:00,
2013-06-25 16:54:00,81.3,56.7,29.75,North,0,2.3,2.3,43,0.00,SCT,,0.00,WeatherDisplay:10.37,2013-06-25 20:54:00,
2013-06-25 16:59:00,81.4,56.8,29.75,North,0,2.3,2.3,43,0.00,SCT,,0.00,WeatherDisplay:10.37,2013-06-25 20:59:00,
2013-06-25 17:04:00,81.1,56.5,29.75,North,0,2.3,2.3,43,0.00,SCT,,0.00,WeatherDisplay:10.37,2013-06-25 21:04:00,
2013-06-25 17:09:00,81.2,56.6,29.75,North,0,0.0,0.0,43,0.00,SCT,,0.00,WeatherDisplay:10.37,2013-06-25 21:09:00,
2013-06-25 17:14:00,81.2,57.2,29.75,North,0,0.0,0.0,44,0.00,BKN,,0.00,WeatherDisplay:10.37,2013-06-25 21:14:00,
2013-06-25 17:19:00,80.8,56.9,29.75,North,0,0.0,0.0,44,0.00,BKN,,0.00,WeatherDisplay:10.37,2013-06-25 21:19:00,
2013-06-25 17:24:00,80.1,56.2,29.75,North,0,0.0,0.1,44,0.00,BKN,,0.00,WeatherDisplay:10.37,2013-06-25 21:24:00,
2013-06-25 17:29:00,79.7,55.9,29.75,North,0,0.0,0.0,44,0.00,BKN,,0.00,WeatherDisplay:10.37,2013-06-25 21:29:00,
2013-06-25 17:34:00,79.1,55.3,29.75,North,0,0.0,0.0,44,0.00,BKN,,0.00,WeatherDisplay:10.37,2013-06-25 21:34:00,
2013-06-25 17:39:00,79.6,55.8,29.75,North,0,1.1,0.0,44,0.00,BKN,,0.00,WeatherDisplay:10.37,2013-06-25 21:39:00,
2013-06-25 17:44:00,79.1,55.3,29.75,North,0,0.0,0.0,44,0.00,BKN,,0.00,WeatherDisplay:10.37,2013-06-25 21:44:00,
2013-06-25 17:49:00,79.0,55.2,29.75,North,0,0.0,0.0,44,0.00,BKN,,0.00,WeatherDisplay:10.37,2013-06-25 21:49:00,
2013-06-25 17:54:00,78.4,54.7,29.75,North,0,0.0,0.0,44,0.00,BKN,,0.00,WeatherDisplay:10.37,2013-06-25 21:54:00,
2013-06-25 17:59:00,74.9,51.5,29.75,WSW,257,4.6,4.6,44,0.01,RA,,0.01,WeatherDisplay:10.37,2013-06-25 21:59:00,
2013-06-25 18:04:00,69.6,50.7,29.73,West,274,5.0,5.0,51,0.03,RA,,0.04,WeatherDisplay:10.37,2013-06-25 22:04:00,
2013-06-25 18:09:00,67.0,48.3,29.73,WNW,290,3.5,3.5,51,0.09,RA,,0.10,WeatherDisplay:10.37,2013-06-25 22:09:00,
2013-06-25 18:14:00,66.2,47.5,29.73,WNW,290,1.1,1.1,51,0.14,RA,,0.14,WeatherDisplay:10.37,2013-06-25 22:14:00,
2013-06-25 18:19:00,66.2,47.5,29.73,WNW,290,0.0,0.0,51,0.15,FEW,,0.15,WeatherDisplay:10.37,2013-06-25 22:19:00,
2013-06-25 18:24:00,66.8,48.1,29.73,WNW,290,0.0,0.0,51,0.16,RA,,0.16,WeatherDisplay:10.37,2013-06-25 22:24:00,
2013-06-25 18:29:00,66.6,47.9,29.73,WNW,290,0.0,0.0,51,0.16,FEW,,0.16,WeatherDisplay:10.37,2013-06-25 22:29:00,
2013-06-25 18:34:00,66.7,48.0,29.73,WNW,290,0.0,0.0,51,0.16,FEW,,0.16,WeatherDisplay:10.37,2013-06-25 22:34:00,
2013-06-25 18:39:00,66.9,48.2,29.73,WNW,290,0.0,0.0,51,0.16,FEW,,0.16,WeatherDisplay:10.37,2013-06-25 22:39:00,
2013-06-25 18:44:00,66.5,47.8,29.73,WNW,290,0.0,0.0,51,0.16,FEW,,0.16,WeatherDisplay:10.37,2013-06-25 22:44:00,
2013-06-25 18:49:00,66.8,48.1,29.73,WNW,290,0.0,0.0,51,0.16,FEW,,0.16,WeatherDisplay:10.37,2013-06-25 22:49:00,
2013-06-25 18:54:00,66.6,47.9,29.73,WNW,290,0.0,0.0,51,0.16,FEW,,0.16,WeatherDisplay:10.37,2013-06-25 22:54:00,
2013-06-25 18:59:00,66.6,47.9,29.73,WNW,290,0.0,0.0,51,0.15,FEW,,0.16,WeatherDisplay:10.37,2013-06-25 22:59:00,
2013-06-25 19:04:00,67.2,55.5,29.74,WNW,290,0.0,0.0,66,0.13,BKN,,0.16,WeatherDisplay:10.37,2013-06-25 23:04:00,
2013-06-25 19:09:00,67.5,55.7,29.74,NE,40,2.3,2.3,66,0.07,BKN,,0.16,WeatherDisplay:10.37,2013-06-25 23:09:00,
2013-06-25 19:14:00,67.4,62.1,29.77,North,10,1.1,0.0,83,0.03,RA,,0.17,WeatherDisplay:10.37,2013-06-25 23:14:00,
2013-06-25 19:19:00,67.2,61.9,29.77,North,10,2.3,2.3,83,0.03,RA,,0.18,WeatherDisplay:10.37,2013-06-25 23:19:00,
2013-06-25 19:24:00,66.9,61.6,29.77,North,9,2.3,2.3,83,0.02,OVC,,0.18,WeatherDisplay:10.37,2013-06-25 23:24:00,
2013-06-25 19:29:00,66.8,61.5,29.77,North,9,0.0,0.2,83,0.03,OVC,,0.19,WeatherDisplay:10.37,2013-06-25 23:29:00,
2013-06-25 19:34:00,66.8,61.5,29.77,North,9,0.0,0.0,83,0.03,OVC,,0.19,WeatherDisplay:10.37,2013-06-25 23:34:00,
2013-06-25 19:39:00,67.0,61.7,29.77,North,9,0.0,0.0,83,0.03,OVC,,0.19,WeatherDisplay:10.37,2013-06-25 23:39:00,
2013-06-25 19:44:00,66.9,61.6,29.77,North,9,0.0,0.0,83,0.04,OVC,,0.20,WeatherDisplay:10.37,2013-06-25 23:44:00,
2013-06-25 19:49:00,66.9,61.6,29.77,North,9,0.0,0.0,83,0.04,OVC,,0.20,WeatherDisplay:10.37,2013-06-25 23:49:00,
2013-06-25 19:54:00,67.0,61.7,29.77,North,9,0.0,0.2,83,0.04,OVC,,0.20,WeatherDisplay:10.37,2013-06-25 23:54:00,
2013-06-25 19:59:00,67.2,61.9,29.77,North,9,0.0,0.0,83,0.04,OVC,,0.20,WeatherDisplay:10.37,2013-06-25 23:59:00,
2013-06-25 20:04:00,67.1,63.4,29.76,North,9,0.0,0.0,88,0.04,-RA,,0.20,WeatherDisplay:10.37,2013-06-26 00:04:00,
2013-06-25 20:09:00,67.2,63.5,29.76,North,9,0.0,0.0,88,0.04,-RA,,0.20,WeatherDisplay:10.37,2013-06-26 00:09:00,
2013-06-25 20:14:00,66.9,63.9,29.76,North,9,0.0,0.0,90,0.03,-RA,,0.20,WeatherDisplay:10.37,2013-06-26 00:14:00,
2013-06-25 20:19:00,66.9,63.9,29.76,North,9,0.0,0.0,90,0.02,-RA,,0.20,WeatherDisplay:10.37,2013-06-26 00:19:00,
2013-06-25 20:24:00,67.0,64.0,29.76,North,9,0.0,0.0,90,0.02,-RA,,0.20,WeatherDisplay:10.37,2013-06-26 00:24:00,
2013-06-25 20:29:00,66.6,63.6,29.76,North,9,0.0,0.1,90,0.01,-RA,,0.20,WeatherDisplay:10.37,2013-06-26 00:29:00,
2013-06-25 20:34:00,66.7,66.7,29.77,North,9,0.0,0.0,100,0.02,-RA,,0.21,WeatherDisplay:10.37,2013-06-26 00:34:00,
2013-06-25 20:39:00,66.8,66.8,29.77,North,9,0.0,0.0,100,0.02,-RA,,0.21,WeatherDisplay:10.37,2013-06-26 00:39:00,
2013-06-25 20:44:00,66.7,66.7,29.77,North,9,0.0,0.0,100,0.01,-RA,,0.21,WeatherDisplay:10.37,2013-06-26 00:44:00,
2013-06-25 20:49:00,66.7,66.7,29.77,North,9,0.0,0.0,100,0.01,-RA,,0.21,WeatherDisplay:10.37,2013-06-26 00:49:00,
2013-06-25 20:54:00,66.6,66.6,29.77,North,9,0.0,0.0,100,0.01,-RA,,0.21,WeatherDisplay:10.37,2013-06-26 00:54:00,
2013-06-25 20:59:00,66.6,66.6,29.77,North,9,1.1,0.0,100,0.01,-RA,,0.21,WeatherDisplay:10.37,2013-06-26 00:59:00,
2013-06-25 21:04:00,66.5,66.5,29.77,North,9,0.0,0.0,100,0.01,BKN,,0.21,WeatherDisplay:10.37,2013-06-26 01:04:00,
2013-06-25 21:09:00,66.6,66.6,29.77,North,9,0.0,0.0,100,0.01,BKN,,0.21,WeatherDisplay:10.37,2013-06-26 01:09:00,
2013-06-25 21:14:00,66.9,66.9,29.77,North,9,0.0,0.1,100,0.01,BKN,,0.21,WeatherDisplay:10.37,2013-06-26 01:14:00,